Regional Weather Roundup
Issued by NWS Portland, ME

Current Version | Previous Version | Text Only | Print | Product List | Glossary Off
Versions: 1 2 3 4 5 6 7 8 9 10 11 12 13 14 15 16 17 18 19 20 21 22 23 24 25 26 27 28 29 30 31 32 33 34 35 36 37 38 39 40 41 42 43 44 45 46 47 48 49 50
000 ASUS41 KGYX 181405 RWRGYX WEATHER ROUNDUP FOR MAINE AND NEW HAMPSHIRE NATIONAL WEATHER SERVICE GRAY ME 1000 AM EDT MON JUN 18 2018 MEZ002-005-006-010-012-015-018-020-021-024-026-027-029-181500- MAINE CITY SKY/WX TMP DP RH WIND PRES REMARKS PORTLAND CLOUDY 77 61 57 S10 29.85F SANFORD FAIR 80 64 58 SW9 29.87F BAR HARBOR LGT RAIN 60 57 89 VRB7 29.87F WISCASSET FAIR 66 58 75 S7 29.87F ROCKLAND FAIR 64 59 83 SW8 29.86F FRYEBURG FAIR 78 64 61 NE6 29.84F LEWISTONAUBURN FAIR 71 60 68 S6 29.85F AUGUSTA FAIR 64 58 80 VRB3 29.87S WATERVILLE FAIR 61 58 90 CALM 29.84S BANGOR LGT RAIN 59 58 96 S8 29.84F FOG GREENVILLE N/A 62 60 93 VRB5 29.79F MILLINOCKET FAIR 59 55 87 CALM 29.78F HOULTON LGT RAIN 57 56 96 S8 29.74F PRESQUE ISLE NOT AVBL FRENCHVILLE FOG 57 54 89 S13 29.67F VSB 1/4 CARIBOU CLOUDY 55 53 93 S9 29.70F $$ NHZ002-005-008-009-011-012-014-181500- NEW HAMPSHIRE CITY SKY/WX TMP DP RH WIND PRES REMARKS ROCHESTER FAIR 80 66 62 VRB3 29.86F NASHUA FAIR 80 66 62 VRB5 29.90F MANCHESTER PTSUNNY 81 63 54 S10 29.87F CONCORD FAIR 78 64 61 S6 29.89F LACONIA FAIR 77 63 61 SW7 29.88F PLYMOUTH FAIR 73 58 60 CALM 29.87F BERLIN FAIR 79 62 56 CALM 29.85F WHITEFIELD HAZE 83 65 54 W10 29.84F VSB 1 JAFFREY FAIR 77 64 64 SW8 29.95F KEENE FAIR 80 64 58 VRB3 29.92F LEBANON FAIR 80 64 58 SW8 29.87F MT WASHINGTON FOG 55 55 100 W54G60 N/A VSB 0 $$ VTZ005-007-008-181500- VERMONT CITY SKY/WX TMP DP RH WIND PRES REMARKS ST JOHNSBURY N/A 77 62 59 MISG 29.81F MONTPELIER FAIR 80 66 62 VRB6 29.89F BURLINGTON PTSUNNY 81 64 56 S13G22 29.80F $$ MAZ007-012-024-CTZ003-RIZ002-NYZ038-NYZ072-181500- SOUTHERN NEW ENGLAND AND NY CITY SKY/WX TMP DP RH WIND PRES REMARKS BOSTON PTSUNNY 82 65 56 SW15G21 29.91F WORCESTER FAIR 80 66 62 SW14 29.96F NANTUCKET FAIR 66 61 84 SW13 30.03F PROVIDENCE PTSUNNY 80 65 59 SW12G22 29.97F HARTFORD PTSUNNY 80 65 59 S10 29.95F ALBANY PTSUNNY 80 64 58 S10 29.92F NEW YORK CITY PTSUNNY 84 66 54 SW12 29.99F $$ ANZ081-ANZ082-ANZ150-NHZ014-MEZ023>029-181500- COASTAL MARINE OBSERVATIONS STATION/POSITION TIME TEMP WIND PRES WAVE AIR SEA DIR/SP/G HT/PER (UTC) (F) (DEG/KT/KT) (MB) (FT/S) MOUNT DESERT ROC 1400 55 200/ 14/ 15 1012.5R MATINICUS ROCK 1300 56 200/ 15/ 16 1011.4F ISLE OF SHOALS 1300 71 220/ 22/ 23 1011.6F JEFFREYS LEDGE 1336 58 N/A 3/ 4 $$ .............KEY.............. WCI - WIND CHILL TC - TEMPERATURE IN CELSIUS VSB - VISIBILITY IN MILES HX - HEAT INDEX FAIR- INDICATES FEW OR NO CLOUDS BELOW 12,000 FT, WITH NO SIGNIFICANT WEATHER AND/OR OBSTRUCTIONS TO VISIBILITY.

USA.gov is the U.S. government's official web portal to all federal, state and local government web resources and services.